Lafayette, CO

8:40 PM MDT on July 29, 2016 (GMT -0600)
Erie Municipal Airport

Weather History for KEIK - February, 2012

Change the Weather History Date:

Tuesday, February 21, 2012

  Actual Average (KBDU) Record (KBDU)
Temperature  
Mean Temperature 36 °F -  
Max Temperature 46 °F - 46 °F (2014)
Min Temperature 26 °F - 17 °F (2015)
Degree Days  
Heating Degree Days 29    
Month to date heating degree days  
Cooling Degree Days 0    
Month to date cooling degree days  
Moisture  
Dew Point 14 °F    
Average Humidity 39    
Maximum Humidity 55    
Minimum Humidity 27    
Precipitation  
Precipitation 0.00 in - 0.05 in (2015)
Sea Level Pressure  
Sea Level Pressure 29.81 in    
Wind  
Wind Speed 9 mph (West)    
Max Wind Speed 37 mph    
Max Gust Speed 46 mph    
Visibility 10 miles    
Events      
T = Trace of Precipitation, MM = Missing Value Source: NWS Daily Summary

Daily Weather History Graph

Daily Weather History Graph

Search for Another Location

Airport or City:

Trip Planner

Search our weather history database for the weather conditions in past years. The results will help you decide how hot, cold, wet, or windy it might be!

Date:

Astronomy

Feb. 21, 2012 Rise Set
Actual Time 6:45 AM MST 5:42 PM MST
Civil Twilight 6:18 AM MST 6:10 PM MST
Nautical Twilight 5:46 AM MST 6:41 PM MST
Astronomical Twilight 5:15 AM MST 7:13 PM MST
Moon 6:15 AM MST (2/21) 5:51 PM MST (2/21)
Length of Visible Light 11h 51m
Length of Day
10h 56m
Waning Crescent, 0% of the Moon is Illuminated
Feb 21
Waning Crescent
Feb 21
New
Feb 29
First Quarter
Mar 8
Full
Mar 14
Last Quarter

Hourly Weather History & Observations

Time (MST) Temp. Windchill Dew Point Humidity Pressure Visibility Wind Dir Wind Speed Gust Speed Precip Events Conditions
12:17 AM 33.8 °F 27.0 °F 8.6 °F 35% 29.84 in 10.0 mi ESE 8.1 mph - N/A   Unknown
12:37 AM 32.0 °F 28.7 °F 8.6 °F 38% 29.85 in 10.0 mi East 3.5 mph - N/A   Unknown
12:57 AM 30.2 °F 26.7 °F 12.2 °F 47% 29.84 in 10.0 mi North 3.5 mph - N/A   Unknown
1:17 AM 33.8 °F - 6.8 °F 32% 29.84 in 10.0 mi Calm Calm - N/A   Unknown
1:37 AM 32.0 °F 28.7 °F 8.6 °F 38% 29.83 in 10.0 mi SSW 3.5 mph - N/A   Unknown
1:57 AM 33.8 °F - 6.8 °F 32% 29.84 in 10.0 mi Calm Calm - N/A   Unknown
2:17 AM 33.8 °F 28.6 °F 8.6 °F 35% 29.83 in 10.0 mi South 5.8 mph - N/A   Unknown
2:37 AM 32.0 °F 26.4 °F 10.4 °F 41% 29.82 in 10.0 mi SSW 5.8 mph - N/A   Unknown
2:57 AM 26.6 °F - 12.2 °F 55% 29.82 in 10.0 mi Calm Calm - N/A   Unknown
3:17 AM 26.6 °F - 12.2 °F 55% 29.83 in 10.0 mi Calm Calm - N/A   Unknown
3:37 AM 32.0 °F 20.1 °F 8.6 °F 38% 29.82 in 10.0 mi WNW 19.6 mph 24.2 mph N/A   Unknown
3:57 AM 33.8 °F 21.9 °F 12.2 °F 41% 29.82 in 10.0 mi WNW 21.9 mph 29.9 mph N/A   Unknown
4:17 AM 33.8 °F 23.2 °F 14.0 °F 44% 29.83 in 10.0 mi West 17.3 mph 35.7 mph N/A   Unknown
4:37 AM 33.8 °F 27.0 °F 8.6 °F 35% 29.84 in 10.0 mi WSW 8.1 mph 16.1 mph N/A   Unknown
4:57 AM 33.8 °F 30.8 °F 8.6 °F 35% 29.84 in 10.0 mi West 3.5 mph - N/A   Unknown
5:17 AM 30.2 °F 25.4 °F 10.4 °F 44% 29.84 in 10.0 mi ESE 4.6 mph - N/A   Unknown
5:37 AM 28.4 °F 21.2 °F 12.2 °F 51% 29.84 in 10.0 mi SW 6.9 mph - N/A   Unknown
6:17 AM 26.6 °F 15.7 °F 12.2 °F 55% 29.83 in 10.0 mi ESE 12.7 mph - N/A   Unknown
6:37 AM 32.0 °F 22.5 °F 12.2 °F 44% 29.84 in 10.0 mi SE 12.7 mph - N/A   Unknown
6:57 AM 30.2 °F 22.6 °F 12.2 °F 47% 29.83 in 10.0 mi East 8.1 mph - N/A   Unknown
7:17 AM 32.0 °F - 12.2 °F 44% 29.85 in 10.0 mi Calm Calm - N/A   Unknown
7:37 AM 30.2 °F - 12.2 °F 47% 29.84 in 10.0 mi Calm Calm - N/A   Unknown
7:57 AM 30.2 °F 26.7 °F 12.2 °F 47% 29.86 in 10.0 mi West 3.5 mph - N/A   Unknown
8:17 AM 37.4 °F 27.8 °F 8.6 °F 30% 29.85 in 10.0 mi West 17.3 mph 29.9 mph N/A   Unknown
8:37 AM 37.4 °F 24.4 °F 14.0 °F 38% 29.84 in 10.0 mi WNW 33.4 mph 40.3 mph N/A   Unknown
8:57 AM 37.4 °F 27.2 °F 14.0 °F 38% 29.85 in 10.0 mi West 19.6 mph 34.5 mph N/A   Unknown
9:17 AM 39.2 °F 32.0 °F 14.0 °F 36% 29.84 in 10.0 mi WNW 11.5 mph 19.6 mph N/A   Unknown
9:37 AM 39.2 °F 33.0 °F 14.0 °F 36% 29.82 in 10.0 mi South 9.2 mph - N/A   Unknown
9:57 AM 37.4 °F 33.8 °F 15.8 °F 41% 29.83 in 10.0 mi SSW 4.6 mph - N/A   Unknown
10:17 AM 41.0 °F 32.5 °F 12.2 °F 31% 29.82 in 10.0 mi West 17.3 mph 20.7 mph N/A   Unknown
10:37 AM 42.8 °F 38.0 °F 10.4 °F 27% 29.81 in 10.0 mi SW 8.1 mph 18.4 mph N/A   Unknown
10:57 AM 41.0 °F 37.1 °F 14.0 °F 33% 29.82 in 10.0 mi SSW 5.8 mph - N/A   Unknown
11:17 AM 42.8 °F 35.8 °F 12.2 °F 29% 29.80 in 10.0 mi NW 13.8 mph 27.6 mph N/A   Unknown
11:37 AM 42.8 °F 31.3 °F 15.8 °F 34% 29.80 in 10.0 mi WNW 36.8 mph 46.0 mph N/A   Unknown
11:57 AM 42.8 °F 33.1 °F 17.6 °F 36% 29.81 in 10.0 mi WNW 25.3 mph 40.3 mph N/A   Unknown
12:17 PM 42.8 °F 35.4 °F 17.6 °F 36% 29.79 in 10.0 mi WNW 15.0 mph 25.3 mph N/A   Unknown
12:37 PM 42.8 °F 35.1 °F 17.6 °F 36% 29.78 in 10.0 mi WNW 16.1 mph 28.8 mph N/A   Unknown
12:57 PM 42.8 °F 36.2 °F 19.4 °F 39% 29.77 in 10.0 mi WNW 12.7 mph 20.7 mph N/A   Unknown
1:17 PM 44.6 °F - 17.6 °F 34% 29.76 in 10.0 mi Calm Calm - N/A   Unknown
1:37 PM 46.4 °F 41.1 °F 15.8 °F 29% 29.75 in 10.0 mi NW 11.5 mph 18.4 mph N/A   Unknown
1:57 PM 44.6 °F 42.2 °F 17.6 °F 34% 29.75 in 10.0 mi WNW 4.6 mph 20.7 mph N/A   Unknown
2:17 PM 44.6 °F 37.4 °F 19.4 °F 37% 29.74 in 10.0 mi WNW 16.1 mph 24.2 mph N/A   Unknown
2:37 PM 44.6 °F 38.4 °F 19.4 °F 37% 29.74 in 10.0 mi NW 12.7 mph 27.6 mph N/A   Unknown
2:57 PM 44.6 °F 36.9 °F 19.4 °F 37% 29.75 in 10.0 mi WNW 18.4 mph 25.3 mph N/A   Unknown
3:17 PM 44.6 °F 37.2 °F 19.4 °F 37% 29.76 in 10.0 mi NW 17.3 mph 26.5 mph N/A   Unknown
3:37 PM 44.6 °F 36.9 °F 19.4 °F 37% 29.75 in 10.0 mi NW 18.4 mph 25.3 mph N/A   Unknown
3:57 PM 42.8 °F 36.2 °F 23.0 °F 46% 29.76 in 10.0 mi WNW 12.7 mph - N/A   Unknown
4:17 PM 44.6 °F - 21.2 °F 39% 29.76 in 10.0 mi Calm Calm - N/A   Unknown
4:37 PM 42.8 °F - 21.2 °F 42% 29.76 in 10.0 mi Calm Calm - N/A   Unknown
4:57 PM 44.6 °F 43.1 °F 19.4 °F 37% 29.76 in 10.0 mi West 3.5 mph - N/A   Unknown
5:17 PM 44.6 °F 41.4 °F 17.6 °F 34% 29.76 in 10.0 mi SW 5.8 mph - N/A   Unknown
5:37 PM 42.8 °F 41.1 °F 23.0 °F 46% 29.77 in 10.0 mi South 3.5 mph - N/A   Unknown
5:57 PM 42.8 °F 38.0 °F 19.4 °F 39% 29.77 in 10.0 mi West 8.1 mph 17.3 mph N/A   Unknown
6:17 PM 42.8 °F 38.0 °F 21.2 °F 42% 29.77 in 10.0 mi West 8.1 mph - N/A   Unknown
6:37 PM 42.8 °F 37.5 °F 21.2 °F 42% 29.77 in 10.0 mi West 9.2 mph 18.4 mph N/A   Unknown
6:57 PM 41.0 °F 34.7 °F 21.2 °F 45% 29.76 in 10.0 mi West 10.4 mph - N/A   Unknown
7:17 PM 41.0 °F 36.4 °F 23.0 °F 49% 29.77 in 10.0 mi NW 6.9 mph - N/A   Unknown
7:37 PM 42.8 °F 36.2 °F 23.0 °F 46% 29.77 in 10.0 mi WNW 12.7 mph 18.4 mph N/A   Unknown
7:57 PM 39.2 °F 33.6 °F 24.8 °F 56% 29.77 in 10.0 mi West 8.1 mph - N/A   Unknown
8:17 PM 42.8 °F 37.5 °F 21.2 °F 42% 29.77 in 10.0 mi West 9.2 mph - N/A   Unknown
8:37 PM 42.8 °F 35.4 °F 23.0 °F 46% 29.77 in 10.0 mi West 15.0 mph 20.7 mph N/A   Unknown
8:57 PM 42.8 °F 34.0 °F 23.0 °F 46% 29.75 in 10.0 mi West 20.7 mph 31.1 mph N/A   Unknown
9:17 PM 42.8 °F 34.0 °F 23.0 °F 46% 29.74 in 10.0 mi WNW 20.7 mph 31.1 mph N/A   Unknown
9:37 PM 42.8 °F 33.1 °F 23.0 °F 46% 29.73 in 10.0 mi WNW 25.3 mph 35.7 mph N/A   Unknown
9:57 PM 42.8 °F 34.5 °F 23.0 °F 46% 29.73 in 10.0 mi WNW 18.4 mph 28.8 mph N/A   Unknown
10:17 PM 41.0 °F 37.1 °F 26.6 °F 57% 29.75 in 10.0 mi NNW 5.8 mph - N/A   Unknown
10:37 PM 41.0 °F - 23.0 °F 49% 29.73 in 10.0 mi Calm Calm - N/A   Unknown
10:57 PM 39.2 °F 33.0 °F 26.6 °F 61% 29.73 in 10.0 mi ESE 9.2 mph - N/A   Unknown
11:17 PM 42.8 °F 38.6 °F 23.0 °F 46% 29.73 in 10.0 mi East 6.9 mph 21.9 mph N/A   Unknown
11:37 PM 44.6 °F 40.7 °F 21.2 °F 39% 29.72 in 10.0 mi South 6.9 mph - N/A   Unknown
11:57 PM 48.2 °F - 19.4 °F 32% 29.72 in 10.0 mi West 16.1 mph 40.3 mph N/A   Unknown